Simultaneous Nadir Overpasses (SNOs) Predictions

Prediction of SNOs between NOAA-15 and METOP-C Satellite Orbit:

Table of predicted SNOs for the next 14.0 days since TLE Epoch: 10/17/2019
Index Date (NOAA-15) Time (NOAA-15) Lat,Lon (NOAA-15) SZA (NOAA-15 ) Date (METOP-C) Time (METOP-C) Lat,Lon (METOP-C) SZA (METOP-C ) Distance(km) Time Diff (sec)
1 10/30/2019 13:29:50 -80.87,-168.64 83.51 10/30/2019 13:28:45 -80.86,-168.50 83.53 2.55 65
2 10/30/2019 14:20:24 80.86, -1.10 96.52 10/30/2019 14:19:25 80.86, -1.19 96.49 1.70 59
3 10/30/2019 15:10:52 -80.86, 166.33 83.47 10/30/2019 15:10:06 -80.88, 166.36 83.47 1.76 46
4 10/30/2019 16:01:27 80.87, -26.49 96.54 10/30/2019 16:00:46 80.87, -26.33 96.54 2.78 41
5 10/30/2019 16:51:55 -80.87, 140.94 83.46 10/30/2019 16:51:28 -80.87, 140.87 83.47 1.28 27
6 10/30/2019 17:42:30 80.88, -51.87 96.55 10/30/2019 17:42:08 80.87, -51.82 96.54 1.36 22
7 10/30/2019 18:32:58 -80.87, 115.55 83.44 10/30/2019 18:32:49 -80.88, 115.73 83.42 3.20 9
8 10/30/2019 19:23:32 80.86, -76.90 96.59 10/30/2019 19:23:29 80.88, -76.96 96.59 1.77 3
9 10/30/2019 20:14:01 -80.88, 90.16 83.42 10/30/2019 20:14:11 -80.87, 90.24 83.42 1.74 10
10 10/30/2019 21:04:35 80.87,-102.29 96.60 10/30/2019 21:04:51 80.87,-102.45 96.59 2.91 16
11 10/30/2019 21:55:03 -80.87, 65.13 83.39 10/30/2019 21:55:32 -80.88, 65.10 83.37 1.44 29
12 10/30/2019 22:45:38 80.88,-127.68 96.62 10/30/2019 22:46:12 80.88,-127.59 96.64 1.55 34
13 10/30/2019 23:36:06 -80.87, 39.74 83.37 10/30/2019 23:36:54 -80.87, 39.60 83.37 2.38 48
14 10/31/2019 00:26:41 80.88,-153.07 96.64 10/31/2019 00:27:34 80.87,-153.08 96.65 1.34 53
15 10/31/2019 01:17:09 -80.88, 14.35 83.36 10/31/2019 01:18:15 -80.88, 14.47 83.32 2.10 66




NCC Satellite Simultaneous Nadir Overpasses (SNOs) Prediction Service
